EHI
6 3 1 0 0 0 0 0 0 0 0 0 0 0 0 0 0 0 0 0 0 0 0 0 0 0 0 1 1 1 0 0 0 1 1 2 2 2 1 0 0 0 1 1 1 1 1 2 4
3 1 0 0 0 0 0 0 0 0 0 0 0 0 0 0 0 0 0 0 0 0 0 0 0 0 0 0 1 1 1 0 1 2 2 3 3 3 1 0 0 0 1 1 1 1 0 1 2
1 0 0 0 0 0 0 0 0 0 0 0 0 0 0 0 0 0 0 0 0 0 0 0 0 0 0 0 0 1 1 1 1 2 2 2 3 2 1 0 0 0 1 2 2 1 0 0 1
0 0 0 0 0 0 0 0 0 0 0 0 0 0 0 0 0 1 1 0 0 0 0 0 1 0 0 0 0 0 0 0 1 1 1 1 1 1 1 1 0 0 1 2 2 1 0 0 1
0 0 0 0 0 0 0 0 0 0 0 0 0 0 0 0 0 2 2 1 1 0 0 1 3 2 0 0 0 0 0 1 1 1 0 0 0 0 1 1 1 0 0 1 2 1 1 1 1
0 0 0 0 0 0 0 0 0 0 0 0 0 0 0 0 0 1 2 2 1 0 0 1 3 3 1 0 0 0 0 1 2 1 0 0 0 0 1 2 1 0 0 1 1 1 1 1 1
0 0 0 0 0 0 0 0 0 0 0 0 0 0 0 0 0 0 1 2 1 0 0 0 1 1 0 0 0 0 0 1 1 1 0 1 1 1 1 2 1 0 0 0 0 0 0 0 0
0 0 0 0 0 0 0 0 0 0 0 0 0 0 0 0 0 1 2 2 1 0 0 0 0 0 0 0 0 0 0 0 0 0 1 2 2 1 1 0 0 0 0 0 0 0 0 0 0
0 0 0 0 0 0 0 0 0 0 0 0 0 0 0 0 1 1 1 1 0 0 0 0 0 0 0 0 0 0 0 0 0 0 1 1 1 1 0 0 0 0 0 0 0 0 0 0 0
0 0 0 0 0 0 0 0 0 0 0 0 0 1 1 0 1 1 1 0 0 0 0 0 0 0 0 0 0 0 0 0 0 0 0 0 0 0 0 0 0 0 0 0 1 1 1 0 0
0 0 0 0 0 0 0 0 0 0 0 0 1 2 2 1 0 0 0 0 0 0 0 0 0 0 0 0 0 0 0 0 0 0 0 0 0 0 0 0 0 0 0 0 1 1 1 0 0
0 0 0 0 0 0 0 0 0 0 0 1 2 3 3 1 0 0 0 0 0 0 0 0 0 0 0 0 0 0 0 0 0 0 0 0 0 0 0 0 0 0 0 0 0 0 0 0 0
0 0 0 0 0 0 0 0 0 0 0 2 3 4 3 2 1 1 0 0 0 0 0 0 0 0 0 0 0 0 0 0 0 0 0 0 0 0 0 0 0 0 0 0 0 0 0 0 0
0 0 0 0 0 0 0 0 0 0 1 2 3 3 3 3 2 2 1 1 0 0 0 0 0 0 0 0 0 0 0 0 0 0 0 0 0 0 0 0 0 0 0 0 0 0 0 0 0
0 0 0 0 0 0 0 0 0 0 1 2 3 2 2 2 2 2 2 2 1 0 0 0 0 0 0 0 0 0 0 0 0 0 0 0 0 0 0 0 0 0 0 0 0 0 0 0 0
0 0 0 0 0 0 0 0 0 1 1 2 2 1 0 0 1 1 2 3 3 1 1 2 1 0 0 0 0 0 0 0 0 0 0 0 0 0 0 0 0 0 0 0 0 0 0 0 0
0 0 0 0 0 0 0 0 1 2 2 1 1 0 0 0 0 0 1 3 4 3 3 3 2 1 0 0 0 0 0 0 0 0 0 0 0 0 0 0 0 0 0 0 0 0 0 0 0
0 0 0 0 0 0 0 0 1 2 2 1 0 0 0 0 0 0 0 1 3 4 5 5 3 1 0 0 0 0 0 0 0 0 0 0 0 0 0 0 0 0 0 0 0 0 0 0 0
0 0 0 0 0 0 0 0 0 1 2 2 1 0 0 0 0 0 0 1 2 4 5 5 3 1 0 0 0 0 0 0 0 0 0 0 0 0 0 0 0 0 0 0 0 0 0 0 0
0 0 0 0 0 0 0 0 0 1 2 2 1 0 0 0 0 0 0 0 1 3 4 4 3 1 0 0 0 0 0 0 0 0 0 0 0 0 0 0 0 0 0 0 0 0 0 0 0
0 0 0 0 0 0 0 0 0 0 1 1 0 0 0 0 0 0 0 0 1 2 3 3 3 2 1 0 0 0 0 0 0 0 0 0 0 0 0 0 0 0 0 0 0 0 0 0 0
0 0 0 0 0 0 0 0 0 0 0 0 0 0 0 0 0 0 1 1 1 2 3 3 3 3 2 1 0 0 0 0 0 0 0 0 0 0 0 0 0 0 0 0 0 0 0 0 0
0 0 0 0 0 0 0 0 0 0 0 0 0 0 0 1 1 2 2 2 2 2 3 3 3 3 3 2 1 0 0 0 0 0 0 0 0 0 0 0 0 0 0 0 0 0 0 0 0
0 0 0 0 0 0 0 0 0 0 0 0 0 0 1 2 3 3 3 3 2 1 2 2 3 3 3 3 2 1 0 0 0 0 0 0 0 0 0 0 0 0 0 0 0 0 0 0 0
0 0 0 0 0 0 0 0 0 0 0 0 0 0 1 2 3 3 3 2 1 0 1 1 1 3 3 3 3 2 1 0 0 0 0 0 0 0 0 0 0 0 0 0 0 0 0 0 0
0 0 0 0 0 0 0 0 0 1 0 0 0 0 0 1 1 1 1 1 0 0 1 1 1 2 3 3 3 3 2 1 0 0 0 0 0 0 0 0 0 0 0 0 0 0 0 0 0
0 0 0 0 0 0 0 0 0 0 0 0 0 0 0 0 0 0 0 1 1 1 2 2 1 1 2 2 2 2 2 1 0 0 0 0 0 0 0 0 0 0 0 0 0 0 0 0 0
0 0 0 0 0 0 0 0 0 0 0 0 0 0 0 0 0 0 0 1 2 3 3 3 1 0 1 1 1 1 1 0 0 0 0 0 0 0 0 0 0 0 0 0 0 0 0 0 0
0 0 0 0 0 0 0 0 0 0 0 0 0 0 0 0 0 0 0 1 3 3 3 3 2 1 0 0 0 0 0 0 0 0 0 0 0 0 0 0 0 0 0 0 0 0 0 0 0
0 0 0 0 0 0 0 0 0 0 0 0 0 0 0 0 0 0 0 1 2 3 3 3 2 1 0 0 0 0 0 0 0 0 0 0 0 0 0 0 0 0 0 0 0 0 0 0 0
Wind_Speed
2 1 2 4 6 5 2 0 2 2 3 4 7 9 7 5 4 4 2 6 8 6 4 5 7 7 7 7 7 7 7 8 8 8 8 9 9 9 9 9 10 10 10 10 10 10 10 11 10
1 1 3 5 5 4 1 0 3 3 4 6 7 6 7 5 4 5 3 6 8 7 4 5 7 7 7 7 7 7 8 8 8 9 9 9 9 9 9 10 10 10 10 10 10 10 10 10 10
1 1 4 4 3 4 3 2 3 2 4 5 5 5 5 4 4 4 5 8 8 6 4 5 8 7 7 7 7 7 8 8 9 9 9 9 9 9 9 10 10 10 10 10 10 10 10 10 10
3 4 5 5 3 3 5 4 4 4 4 5 6 5 3 2 4 5 8 10 8 6 4 5 8 7 7 7 7 7 8 8 9 9 9 9 9 9 9 9 9 10 10 10 10 10 10 10 10
4 5 5 3 1 1 3 3 5 5 4 5 7 6 3 2 7 9 9 9 8 5 4 5 8 8 8 8 7 8 8 9 9 9 9 9 9 9 9 9 9 9 9 10 10 10 10 10 10
4 4 4 2 1 1 1 3 6 6 6 6 7 6 2 2 6 7 8 8 8 7 4 4 8 8 8 8 7 8 8 9 9 9 9 9 8 8 8 8 9 9 9 10 10 10 10 10 9
4 4 2 3 2 1 2 3 5 5 5 5 7 6 3 2 5 7 8 7 7 6 5 4 4 5 6 7 7 7 8 8 9 8 7 7 7 7 7 8 9 8 9 9 9 9 9 10 9
5 5 2 1 3 1 1 2 4 5 4 5 6 8 5 5 5 7 7 6 6 5 5 4 4 3 2 3 5 6 7 7 7 7 6 6 6 6 6 6 7 8 8 8 9 9 9 9 9
4 5 1 2 2 1 2 3 2 3 5 3 4 6 8 9 8 7 5 4 4 5 3 4 4 3 2 2 3 4 5 5 5 4 5 4 2 2 3 5 7 7 7 7 7 8 8 8 8
5 3 3 3 3 3 2 3 4 4 5 4 5 6 9 9 8 8 6 5 4 4 4 4 4 4 3 2 2 1 2 2 2 2 2 2 2 2 3 4 5 6 6 5 6 7 7 6 4
3 4 2 2 3 4 3 2 3 7 4 6 10 11 10 8 8 7 6 5 5 5 4 4 4 4 4 2 2 1 1 1 1 2 2 2 2 2 3 2 3 3 4 2 4 4 3 3 3
2 1 3 3 3 4 3 3 2 3 6 9 12 13 10 9 8 8 7 5 4 4 4 4 5 4 4 3 2 2 1 1 1 1 2 3 2 2 2 2 2 2 2 2 3 3 4 4 4
1 1 1 2 3 3 3 3 3 2 4 9 11 12 11 10 8 7 7 6 5 4 4 4 5 4 4 3 2 2 2 2 2 2 2 3 3 3 2 2 2 2 2 3 3 4 4 4 4
3 1 1 1 1 2 4 1 2 3 6 10 11 10 10 10 9 7 6 6 6 5 5 4 5 5 5 3 3 2 2 2 2 2 3 3 3 3 2 2 2 2 2 2 3 4 4 4 4
2 1 2 2 2 2 4 1 3 5 8 10 10 10 9 8 8 8 9 9 8 6 5 5 6 5 5 4 3 3 2 3 2 2 3 3 3 3 3 3 2 2 2 3 3 4 4 4 4
2 2 1 4 2 3 5 4 6 5 8 9 8 8 8 7 8 7 9 8 7 6 6 6 6 6 5 4 4 3 2 3 2 2 3 3 4 4 3 3 2 2 2 3 3 3 4 3 3
2 1 3 4 3 3 4 5 6 5 8 8 8 8 7 6 6 6 8 9 8 8 7 6 6 6 5 5 4 3 3 3 2 2 2 3 4 4 4 3 2 3 3 3 3 3 3 3 3
4 3 3 4 3 3 4 6 5 5 7 8 8 8 8 8 8 8 8 8 8 8 7 7 6 6 5 4 3 3 3 2 2 2 2 3 3 4 4 3 3 3 3 3 3 3 3 2 2
4 3 4 5 4 3 4 5 6 5 4 6 7 7 8 9 7 6 7 8 7 7 7 7 7 6 5 3 3 2 2 1 1 1 2 3 3 4 4 3 3 3 3 3 4 4 4 2 2
3 2 3 4 3 3 3 4 4 5 7 9 10 9 10 7 5 6 6 6 7 8 7 7 8 7 6 4 3 3 3 1 1 1 1 2 3 4 4 4 3 3 3 3 4 4 3 1 1
3 4 4 3 2 2 1 4 3 3 3 4 6 7 8 10 10 8 7 6 7 8 8 8 8 7 6 5 3 3 3 2 1 1 0 1 3 3 4 4 4 3 3 3 3 4 4 2 0
3 4 3 2 1 2 1 2 6 3 2 4 5 5 6 7 8 8 7 7 7 8 7 7 8 7 6 6 6 6 4 3 3 2 2 1 2 3 4 4 4 4 3 3 3 3 3 4 2
5 3 2 2 2 1 1 1 7 2 2 4 4 5 6 7 8 8 8 8 6 6 7 6 7 6 6 6 7 6 4 3 2 1 2 2 2 2 3 4 4 4 3 4 3 3 3 2 3
1 3 4 4 4 1 4 3 5 3 5 3 3 3 5 6 6 6 5 5 4 4 5 5 6 5 5 6 6 6 6 5 4 3 3 2 1 1 3 3 4 4 3 4 3 3 3 3 2
4 5 4 4 3 4 3 2 5 4 2 3 4 3 3 4 6 6 5 5 5 5 5 6 7 5 5 5 5 5 6 6 6 5 4 3 2 2 3 4 4 3 4 4 3 3 3 3 3
1 6 5 3 3 4 2 2 4 2 1 1 2 3 3 3 4 5 6 6 5 5 5 5 6 5 5 5 5 4 5 4 3 4 4 4 3 4 4 4 5 5 4 4 4 3 3 3 3
2 1 5 5 1 1 3 3 3 3 3 3 3 3 3 2 3 3 4 5 5 5 5 6 7 5 5 5 4 4 4 4 4 4 3 3 3 3 4 5 5 4 4 4 4 3 3 3 3
3 4 4 4 1 2 3 2 3 3 2 2 2 1 1 1 1 2 3 4 5 5 5 5 6 6 5 4 4 4 3 4 4 3 3 3 3 2 3 4 4 4 3 4 3 3 3 3 3
1 2 3 3 4 4 2 5 3 4 3 1 1 1 1 1 1 1 1 2 3 3 4 4 4 4 4 4 3 3 3 3 3 3 3 3 3 3 3 4 4 3 3 3 3 3 4 4 3
4 3 5 4 2 3 3 6 3 1 1 1 0 1 1 1 1 1 1 2 2 2 3 3 4 4 4 4 3 3 3 3 3 3 3 3 3 3 3 3 3 4 4 3 4 4 4 4 4
Wind_Direction
293 339 90 61 53 55 62 23 131 73 54 54 75 83 84 69 92 132 211 132 131 135 129 118 111 98 92 90 88 93 95 93 94 94 91 90 92 95 97 95 93 92 91 90 90 91 92 92 92
341 41 68 60 78 75 33 91 94 106 132 115 84 84 81 74 94 114 117 135 133 134 131 121 112 101 96 93 91 89 98 99 96 96 95 93 92 93 96 95 95 94 94 93 90 91 95 92 91
323 62 75 67 93 137 151 182 149 132 122 108 89 65 85 116 115 129 148 142 130 125 125 122 113 104 100 98 97 93 99 103 101 99 101 98 96 94 95 96 96 94 94 92 91 90 92 92 90
61 45 55 74 100 177 164 183 156 116 77 79 98 70 59 99 136 138 136 134 128 128 129 125 117 110 104 103 101 96 102 105 104 102 104 103 100 98 96 98 98 97 96 94 92 91 90 89 92
68 71 60 67 95 148 160 152 125 116 102 93 98 93 57 45 113 122 128 132 131 136 133 128 121 114 109 105 103 100 104 107 106 105 106 106 104 99 96 99 99 100 101 99 94 91 90 90 91
59 68 79 97 108 106 99 106 101 97 108 111 105 109 111 131 121 129 130 132 133 136 133 128 123 117 115 111 107 105 103 105 107 107 106 106 104 100 96 98 100 100 102 100 98 94 92 90 91
106 98 124 147 126 108 136 114 111 114 117 133 126 108 131 164 145 134 129 128 133 136 134 128 131 123 121 119 114 109 107 104 108 111 113 110 108 106 102 102 104 104 107 105 101 99 96 90 86
127 105 91 122 133 149 144 113 119 119 117 128 121 131 164 190 152 125 122 126 135 140 137 142 145 135 121 115 116 115 111 106 105 107 109 107 107 109 108 106 106 105 108 108 105 99 95 91 85
90 78 109 180 151 162 129 109 98 102 103 88 105 143 160 155 132 117 115 118 139 150 153 155 155 156 153 147 131 118 112 105 100 97 99 90 72 78 98 115 115 113 110 108 104 95 91 88 82
89 116 206 190 162 148 132 129 136 99 91 84 85 104 133 139 135 136 144 152 156 164 170 169 166 166 161 152 120 93 100 89 91 90 86 80 81 79 92 98 111 115 110 103 97 93 90 79 66
136 167 184 166 165 146 133 122 122 125 139 162 153 150 150 147 148 154 163 164 165 168 167 160 165 166 158 147 129 107 97 93 95 93 88 90 79 71 64 60 68 76 91 74 76 75 69 77 78
127 206 171 179 169 146 151 142 110 151 186 173 159 155 154 157 163 170 172 171 160 146 154 155 155 153 158 144 133 128 122 110 113 118 118 107 94 80 72 65 66 65 76 90 82 82 82 81 80
143 221 231 181 152 162 130 139 144 192 168 148 145 147 157 165 174 177 169 161 155 152 148 146 142 140 140 133 135 124 129 135 135 125 123 118 111 106 94 88 78 78 80 88 93 93 90 86 84
175 178 236 210 162 155 129 161 123 211 155 144 151 160 170 171 174 162 160 165 168 166 160 147 136 133 128 125 123 121 130 125 107 106 120 120 116 117 108 91 80 78 86 91 99 102 96 89 88
123 105 320 282 187 187 116 10 216 200 150 152 161 168 173 175 172 169 172 172 174 170 157 146 140 131 128 130 126 116 116 110 103 104 113 115 116 117 112 104 96 93 99 96 91 90 88 89 85
63 71 277 272 195 185 130 226 245 202 155 166 173 173 175 177 176 177 173 168 167 157 151 149 139 132 130 126 121 117 115 112 110 109 113 121 117 113 110 110 108 108 101 100 103 97 90 83 77
22 207 240 279 235 180 158 219 241 204 168 176 180 179 178 178 180 180 175 169 166 159 153 145 137 136 134 127 122 113 106 107 116 113 117 124 123 120 116 116 113 105 98 101 115 100 104 102 88
232 221 241 250 259 181 193 226 233 204 179 185 185 183 183 186 192 184 176 169 165 161 154 149 144 141 133 119 105 89 80 84 98 119 129 126 123 123 117 118 112 106 100 95 103 108 95 106 109
213 212 243 252 240 197 213 225 232 218 182 180 186 188 191 200 199 181 172 165 157 156 154 152 148 151 140 129 129 125 129 137 117 132 124 126 129 128 122 121 114 112 116 122 119 113 102 86 92
220 231 258 285 259 189 213 243 235 204 195 189 187 191 195 196 186 185 175 163 165 167 165 161 159 160 159 158 158 154 147 149 139 124 116 132 134 140 136 131 129 125 119 115 119 118 112 110 105
241 209 222 239 327 346 35 326 302 246 205 195 195 193 191 190 187 185 181 175 173 174 175 171 171 167 165 156 126 97 75 61 59 65 167 170 154 152 142 141 136 135 131 139 146 144 136 152 203
240 231 207 207 114 278 166 272 289 256 227 208 209 203 195 193 184 183 181 180 181 184 182 173 170 168 165 154 148 150 154 167 195 194 194 189 170 160 154 151 148 146 144 150 162 154 148 148 167
216 228 219 206 164 338 328 175 283 278 235 238 223 211 199 193 182 179 179 181 178 174 173 170 164 165 163 159 159 158 163 177 177 169 174 186 190 176 166 160 155 156 158 164 164 155 153 156 166
146 42 30 48 72 324 253 181 272 250 228 227 222 204 188 176 168 169 167 160 157 153 154 155 157 164 166 163 163 166 172 170 164 178 184 195 201 207 192 170 168 170 169 174 177 170 164 168 165
63 75 27 2 11 262 266 186 252 273 259 187 175 178 166 159 159 160 157 160 161 160 159 157 156 162 168 166 171 180 180 175 179 186 191 192 197 209 211 186 181 180 184 184 176 167 174 173 169
203 137 156 199 226 276 321 237 262 300 332 94 128 134 114 128 149 167 172 171 170 169 166 161 159 163 171 175 180 179 172 175 185 189 189 195 201 209 205 193 193 191 185 184 179 174 186 177 181
134 164 170 145 207 269 288 296 318 358 28 56 71 93 126 141 160 168 174 172 169 168 172 171 165 165 174 179 173 171 175 178 183 185 184 191 202 207 199 194 194 196 190 185 175 181 190 180 189
150 152 89 107 144 270 288 265 250 276 310 4 34 90 163 149 133 152 182 182 177 174 174 168 162 168 175 176 178 178 186 189 185 173 180 192 202 198 181 186 186 189 189 187 181 185 192 181 195
91 91 107 121 152 160 251 271 253 198 208 195 217 167 170 149 130 151 179 185 178 167 166 170 165 163 168 177 181 176 181 188 179 177 185 187 185 183 183 185 180 180 184 187 184 199 194 193 205
158 169 139 148 214 177 185 261 306 181 182 156 187 194 155 137 132 127 156 160 153 162 173 177 174 176 183 184 170 173 179 174 175 187 192 180 179 184 187 179 180 190 190 190 189 200 203 201 206